,,PA_Meas_PMT16A,,PR_Meas_QMR101_102,,RH_Meas_QMH101,,SR_Meas_QMS101,,TA_Meas_QMH101,,GenWind,,GenWind,
time,status,PA,status,PR,status,RH,status,SR,status,TA,status,DirAvg,status,SpdAvg,
2013-12-08, 00:00:04,VALID,917.368,VALID,0,VALID,97.1909,VALID,0,VALID,19.5888,VALID,26,VALID,0,
2013-12-08, 00:01:04,VALID,917.351,VALID,0,VALID,97.1986,VALID,0,VALID,19.5678,VALID,26,VALID,0,
2013-12-08, 00:02:04,VALID,917.339,VALID,0,VALID,97.1833,VALID,0,VALID,19.5873,VALID,26,VALID,0,
2013-12-08, 00:03:04,VALID,917.318,VALID,0,VALID,97.1986,VALID,0,VALID,19.5873,VALID,26,VALID,0,
2013-12-08, 00:04:04,VALID,917.267,VALID,0,VALID,97.1604,VALID,0,VALID,19.5678,VALID,26,VALID,0,
2013-12-08, 00:05:04,VALID,917.222,VALID,0,VALID,97.1909,VALID,0,VALID,19.5288,VALID,26,VALID,0,
2013-12-08, 00:06:04,VALID,917.185,VALID,0,VALID,97.1833,VALID,0,VALID,19.5288,VALID,26,VALID,0,
2013-12-08, 00:07:04,VALID,917.131,VALID,0,VALID,97.1757,VALID,0,VALID,19.5288,VALID,26,VALID,0,
2013-12-08, 00:08:04,VALID,917.134,VALID,0,VALID,97.1757,VALID,0,VALID,19.4898,VALID,25,VALID,0,
2013-12-08, 00:09:04,VALID,917.081,VALID,0,VALID,97.1757,VALID,0,VALID,19.4898,VALID,26,VALID,0,
2013-12-08, 00:10:04,VALID,917.043,VALID,0,VALID,97.1833,VALID,0,VALID,19.5108,VALID,25,VALID,0,
2013-12-08, 00:11:04,VALID,917.049,VALID,0,VALID,97.1757,VALID,0,VALID,19.4508,VALID,25,VALID,0,
2013-12-08, 00:12:04,VALID,917.055,VALID,0,VALID,97.1986,VALID,0,VALID,19.4508,VALID,25,VALID,0,
2013-12-08, 00:13:04,VALID,917.047,VALID,0,VALID,97.1528,VALID,0,VALID,19.4508,VALID,26,VALID,0,
2013-12-08, 00:14:04,VALID,917.045,VALID,0,VALID,97.1986,VALID,0,VALID,19.4313,VALID,25,VALID,0,
2013-12-08, 00:15:04,VALID,917.04,VALID,0,VALID,97.1909,VALID,0,VALID,19.4313,VALID,25,VALID,0,
2013-12-08, 00:16:04,VALID,917.015,VALID,0,VALID,97.1833,VALID,0,VALID,19.4327,VALID,26,VALID,0,
2013-12-08, 00:17:04,VALID,916.989,VALID,0,VALID,97.1909,VALID,0,VALID,19.3923,VALID,25,VALID,0,
2013-12-08, 00:18:04,VALID,916.934,VALID,0,VALID,97.1833,VALID,0,VALID,19.4118,VALID,25,VALID,0,
2013-12-08, 00:19:04,VALID,916.89,VALID,0,VALID,97.1909,VALID,0,VALID,19.3923,VALID,26,VALID,0,
2013-12-08, 00:20:04,VALID,916.908,VALID,0,VALID,97.1986,VALID,0,VALID,19.3923,VALID,25,VALID,0,
2013-12-08, 00:21:04,VALID,916.855,VALID,0,VALID,97.1604,VALID,0,VALID,19.4118,VALID,26,VALID,0,
2013-12-08, 00:22:04,VALID,916.859,VALID,0,VALID,97.1757,VALID,0,VALID,19.3923,VALID,25,VALID,0,
2013-12-08, 00:23:04,VALID,916.864,VALID,0,VALID,97.1986,VALID,0,VALID,19.3728,VALID,26,VALID,0,
2013-12-08, 00:24:04,VALID,916.836,VALID,0,VALID,97.2062,VALID,0,VALID,19.3742,VALID,25,VALID,0,
2013-12-08, 00:25:04,VALID,916.816,VALID,0,VALID,97.1909,VALID,0,VALID,19.3533,VALID,25,VALID,0,
2013-12-08, 00:26:04,VALID,916.796,VALID,0,VALID,97.2214,VALID,0,VALID,19.3338,VALID,26,VALID,0,
2013-12-08, 00:27:04,VALID,916.775,VALID,0,VALID,97.2062,VALID,0,VALID,19.3352,VALID,25,VALID,0,
2013-12-08, 00:28:04,VALID,916.741,VALID,0,VALID,97.1986,VALID,0,VALID,19.3128,VALID,26,VALID,0,
2013-12-08, 00:29:04,VALID,916.714,VALID,0,VALID,97.2062,VALID,0,VALID,19.3143,VALID,85,VALID,0,
2013-12-08, 00:30:04,VALID,916.711,VALID,0,VALID,97.2138,VALID,0,VALID,19.2933,VALID,109,VALID,0,
2013-12-08, 00:31:04,VALID,916.693,VALID,0,VALID,97.2214,VALID,0,VALID,19.2933,VALID,109,VALID,0,
2013-12-08, 00:32:04,VALID,916.647,VALID,0,VALID,97.2062,VALID,0.107441,VALID,19.2948,VALID,121,VALID,0,
2013-12-08, 00:33:04,VALID,916.652,VALID,0,VALID,97.2062,VALID,0,VALID,19.2738,VALID,132,VALID,0,
2013-12-08, 00:34:04,VALID,916.585,VALID,0,VALID,97.2214,VALID,0.107441,VALID,19.2948,VALID,118,VALID,0,
2013-12-08, 00:35:04,VALID,916.608,VALID,0,VALID,97.2214,VALID,0.107441,VALID,19.2543,VALID,118,VALID,0,
2013-12-08, 00:36:04,VALID,916.602,VALID,0,VALID,97.229,VALID,0,VALID,19.2348,VALID,127,VALID,0,
2013-12-08, 00:37:04,VALID,916.56,VALID,0,VALID,97.2214,VALID,0.107441,VALID,19.2348,VALID,119,VALID,0,
2013-12-08, 00:38:04,VALID,916.556,VALID,0,VALID,97.2214,VALID,0,VALID,19.2348,VALID,135,VALID,0,
2013-12-08, 00:39:04,VALID,916.583,VALID,0,VALID,97.229,VALID,0,VALID,19.2348,VALID,139,VALID,0,
2013-12-08, 00:40:04,VALID,916.557,VALID,0,VALID,97.229,VALID,0,VALID,19.2543,VALID,151,VALID,0,
2013-12-08, 00:41:04,VALID,916.529,VALID,0,VALID,97.2214,VALID,0,VALID,19.2543,VALID,152,VALID,0,
2013-12-08, 00:42:04,VALID,916.534,VALID,0,VALID,97.2519,VALID,0,VALID,19.2738,VALID,158,VALID,0,
2013-12-08, 00:43:04,VALID,916.486,VALID,0,VALID,97.2367,VALID,0,VALID,19.2948,VALID,163,VALID,0,
2013-12-08, 00:44:04,VALID,916.456,VALID,0,VALID,97.2443,VALID,0,VALID,19.2948,VALID,160,VALID,0,
2013-12-08, 00:45:04,VALID,916.465,VALID,0,VALID,97.2367,VALID,0,VALID,19.2753,VALID,157,VALID,0,
2013-12-08, 00:46:04,VALID,916.454,VALID,0,VALID,97.2367,VALID,0,VALID,19.2948,VALID,160,VALID,0,
2013-12-08, 00:47:04,VALID,916.419,VALID,0,VALID,97.2443,VALID,0,VALID,19.3157,VALID,149,VALID,0,
2013-12-08, 00:48:04,VALID,916.441,VALID,0,VALID,97.2443,VALID,0,VALID,19.2962,VALID,144,VALID,0,
2013-12-08, 00:49:04,VALID,916.45,VALID,0,VALID,97.2367,VALID,0,VALID,19.3157,VALID,143,VALID,0,
2013-12-08, 00:50:04,VALID,916.43,VALID,0,VALID,97.2595,VALID,0,VALID,19.3157,VALID,143,VALID,0,
2013-12-08, 00:51:04,VALID,916.399,VALID,0,VALID,97.2595,VALID,0,VALID,19.3143,VALID,145,VALID,0,
2013-12-08, 00:52:04,VALID,916.387,VALID,0,VALID,97.2519,VALID,0,VALID,19.2948,VALID,138,VALID,0,
2013-12-08, 00:53:04,VALID,916.372,VALID,0,VALID,97.2443,VALID,0,VALID,19.2948,VALID,138,VALID,0,
2013-12-08, 00:54:04,VALID,916.344,VALID,0,VALID,97.2672,VALID,0,VALID,19.3157,VALID,138,VALID,0,
2013-12-08, 00:55:04,VALID,916.314,VALID,0,VALID,97.2519,VALID,0,VALID,19.3157,VALID,138,VALID,0,
2013-12-08, 00:56:04,VALID,916.308,VALID,0,VALID,97.2519,VALID,0,VALID,19.2948,VALID,141,VALID,0,
2013-12-08, 00:57:04,VALID,916.285,VALID,0,VALID,97.2748,VALID,0,VALID,19.3157,VALID,145,VALID,0,
2013-12-08, 00:58:04,VALID,916.304,VALID,0,VALID,97.2672,VALID,0.107441,VALID,19.3128,VALID,163,VALID,0.763672,
2013-12-08, 00:59:04,VALID,916.274,VALID,0,VALID,97.2519,VALID,0,VALID,19.3533,VALID,174,VALID,1.10703,
2013-12-08, 01:00:04,VALID,916.296,VALID,0,VALID,97.2748,VALID,0.107441,VALID,19.3323,VALID,182,VALID,0.711719,
2013-12-08, 01:01:04,VALID,916.303,VALID,0,VALID,97.2672,VALID,0.107441,VALID,19.3518,VALID,181,VALID,1.35156,
2013-12-08, 01:02:04,VALID,916.298,VALID,0,VALID,97.2672,VALID,0,VALID,19.3518,VALID,173,VALID,1.34492,
2013-12-08, 01:03:04,VALID,916.273,VALID,0,VALID,97.2519,VALID,0.107441,VALID,19.3518,VALID,165,VALID,1.21914,
2013-12-08, 01:04:04,VALID,916.289,VALID,0,VALID,97.2519,VALID,0.107441,VALID,19.3518,VALID,173,VALID,1.22109,
2013-12-08, 01:05:04,VALID,916.259,VALID,0,VALID,97.2595,VALID,0.107441,VALID,19.3518,VALID,166,VALID,1.31602,
2013-12-08, 01:06:04,VALID,916.265,VALID,0,VALID,97.2595,VALID,0.107441,VALID,19.3713,VALID,160,VALID,0.982031,
2013-12-08, 01:07:04,VALID,916.233,VALID,0,VALID,97.2672,VALID,0.107441,VALID,19.3728,VALID,137,VALID,0.731641,
2013-12-08, 01:08:04,VALID,916.193,VALID,0,VALID,97.2824,VALID,0,VALID,19.3728,VALID,136,VALID,0.906641,
2013-12-08, 01:09:04,VALID,916.15,VALID,0,VALID,97.2672,VALID,0,VALID,19.3728,VALID,123,VALID,0.975391,
2013-12-08, 01:10:04,VALID,916.136,VALID,0,VALID,97.2672,VALID,0.107441,VALID,19.3533,VALID,112,VALID,1.36875,
2013-12-08, 01:11:04,VALID,916.126,VALID,0,VALID,97.29,VALID,0.107441,VALID,19.3518,VALID,110,VALID,0.76875,
2013-12-08, 01:12:04,VALID,916.128,VALID,0,VALID,97.2748,VALID,0.107441,VALID,19.3323,VALID,109,VALID,1.07266,
2013-12-08, 01:13:04,VALID,916.131,VALID,0,VALID,97.2824,VALID,0.107441,VALID,19.3323,VALID,104,VALID,1.67148,
2013-12-08, 01:14:04,VALID,916.112,VALID,0,VALID,97.2824,VALID,0.107441,VALID,19.3323,VALID,97,VALID,1.3668,
2013-12-08, 01:15:04,VALID,916.111,VALID,0,VALID,97.29,VALID,0.107441,VALID,19.3323,VALID,107,VALID,1.02461,
2013-12-08, 01:16:04,VALID,916.144,VALID,0,VALID,97.2672,VALID,0.107441,VALID,19.3323,VALID,101,VALID,0.967969,
2013-12-08, 01:17:04,VALID,916.126,VALID,0,VALID,97.3053,VALID,0,VALID,19.3323,VALID,106,VALID,0.885156,
2013-12-08, 01:18:04,VALID,916.098,VALID,0,VALID,97.29,VALID,0.107441,VALID,19.3128,VALID,104,VALID,1.075,
2013-12-08, 01:19:04,VALID,916.096,VALID,0,VALID,97.2824,VALID,0,VALID,19.3128,VALID,99,VALID,1.07383,
2013-12-08, 01:20:04,VALID,916.031,VALID,0,VALID,97.2748,VALID,0,VALID,19.3323,VALID,125,VALID,1.66055,
2013-12-08, 01:21:04,VALID,916.02,VALID,0,VALID,97.2824,VALID,0.107441,VALID,19.3533,VALID,117,VALID,1.01953,
2013-12-08, 01:22:04,VALID,916.031,VALID,0,VALID,97.2672,VALID,0.107441,VALID,19.3323,VALID,108,VALID,1.39844,
2013-12-08, 01:23:04,VALID,916.01,VALID,0,VALID,97.2748,VALID,0,VALID,19.3518,VALID,123,VALID,0.699609,
2013-12-08, 01:24:04,VALID,916.008,VALID,0,VALID,97.29,VALID,0,VALID,19.3518,VALID,138,VALID,1.74805,
2013-12-08, 01:25:04,VALID,916.013,VALID,0,VALID,97.29,VALID,0.107441,VALID,19.3713,VALID,144,VALID,1.0793,
2013-12-08, 01:26:04,VALID,916,VALID,0,VALID,97.2748,VALID,0,VALID,19.3728,VALID,131,VALID,1.13633,
2013-12-08, 01:27:04,VALID,915.976,VALID,0,VALID,97.2748,VALID,0.107441,VALID,19.3518,VALID,136,VALID,1.56172,
2013-12-08, 01:28:04,VALID,915.984,VALID,0,VALID,97.2748,VALID,0,VALID,19.3533,VALID,134,VALID,1.53281,
2013-12-08, 01:29:04,VALID,915.965,VALID,0,VALID,97.2595,VALID,0,VALID,19.3742,VALID,122,VALID,1.38672,
2013-12-08, 01:30:04,VALID,915.919,VALID,0,VALID,97.2519,VALID,0,VALID,19.3533,VALID,122,VALID,1.32852,
2013-12-08, 01:31:04,VALID,915.895,VALID,0,VALID,97.2595,VALID,0,VALID,19.3533,VALID,123,VALID,1.63281,
2013-12-08, 01:32:04,VALID,915.838,VALID,0,VALID,97.2748,VALID,0,VALID,19.3533,VALID,124,VALID,1.65781,
2013-12-08, 01:33:04,VALID,915.875,VALID,0,VALID,97.2595,VALID,0,VALID,19.3937,VALID,134,VALID,1.66367,
2013-12-08, 01:34:04,VALID,915.848,VALID,0,VALID,97.2519,VALID,0,VALID,19.3937,VALID,145,VALID,1.57656,
2013-12-08, 01:35:04,VALID,915.838,VALID,0,VALID,97.2367,VALID,0,VALID,19.3937,VALID,152,VALID,1.30078,
2013-12-08, 01:36:04,VALID,915.837,VALID,0,VALID,97.2443,VALID,0,VALID,19.3742,VALID,125,VALID,1.78633,
2013-12-08, 01:37:04,VALID,915.785,VALID,0,VALID,97.229,VALID,0,VALID,19.3728,VALID,128,VALID,0.941797,
2013-12-08, 01:38:04,VALID,915.789,VALID,0,VALID,97.2367,VALID,0,VALID,19.3923,VALID,118,VALID,0.5625,
2013-12-08, 01:39:04,VALID,915.757,VALID,0,VALID,97.2062,VALID,0,VALID,19.3728,VALID,121,VALID,1.37305,
2013-12-08, 01:40:04,VALID,915.697,VALID,0,VALID,97.1986,VALID,0,VALID,19.3728,VALID,131,VALID,1.95156,
2013-12-08, 01:41:04,VALID,915.671,VALID,0,VALID,97.1757,VALID,0,VALID,19.3923,VALID,116,VALID,1.24688,
2013-12-08, 01:42:04,VALID,915.671,VALID,0,VALID,97.1681,VALID,0,VALID,19.3923,VALID,111,VALID,1.04844,
2013-12-08, 01:43:04,VALID,915.637,VALID,0,VALID,97.1528,VALID,0.107441,VALID,19.3908,VALID,109,VALID,0.983203,
2013-12-08, 01:44:04,VALID,915.622,VALID,0,VALID,97.1147,VALID,0,VALID,19.4118,VALID,134,VALID,1.10625,
2013-12-08, 01:45:04,VALID,915.645,VALID,0,VALID,97.1071,VALID,0,VALID,19.4118,VALID,128,VALID,1.01055,
2013-12-08, 01:46:04,VALID,915.636,VALID,0,VALID,97.0613,VALID,0,VALID,19.4118,VALID,132,VALID,1.63867,
2013-12-08, 01:47:04,VALID,915.633,VALID,0,VALID,97.0461,VALID,0.107441,VALID,19.4298,VALID,140,VALID,1.30586,
2013-12-08, 01:48:04,VALID,915.606,VALID,0,VALID,97.0003,VALID,0.107441,VALID,19.4298,VALID,140,VALID,1.07227,
2013-12-08, 01:49:04,VALID,915.579,VALID,0,VALID,96.9775,VALID,0,VALID,19.4508,VALID,143,VALID,1.57578,
2013-12-08, 01:50:04,VALID,915.561,VALID,0,VALID,96.9165,VALID,0.107441,VALID,19.4298,VALID,131,VALID,1.19023,
2013-12-08, 01:51:04,VALID,915.52,VALID,0,VALID,96.825,VALID,0,VALID,19.4703,VALID,157,VALID,1.23398,
2013-12-08, 01:52:04,VALID,915.52,VALID,0,VALID,96.7716,VALID,0,VALID,19.4688,VALID,154,VALID,0.643359,
2013-12-08, 01:53:04,VALID,915.527,VALID,0,VALID,96.7183,VALID,0.107441,VALID,19.4703,VALID,157,VALID,1.04141,
2013-12-08, 01:54:04,VALID,915.457,VALID,0,VALID,96.6725,VALID,0.107441,VALID,19.4703,VALID,162,VALID,1.3293,
2013-12-08, 01:55:04,VALID,915.405,VALID,0.2,VALID,96.6039,VALID,0.107441,VALID,19.4703,VALID,153,VALID,0.757422,
2013-12-08, 01:56:04,VALID,915.363,VALID,0,VALID,96.5506,VALID,0.107441,VALID,19.4493,VALID,152,VALID,0.188281,
2013-12-08, 01:57:04,VALID,915.293,VALID,0,VALID,96.4438,VALID,0.107441,VALID,19.4298,VALID,152,VALID,0.429297,
2013-12-08, 01:58:04,VALID,915.253,VALID,0,VALID,96.36,VALID,0,VALID,19.4493,VALID,206,VALID,0.601172,
2013-12-08, 01:59:04,VALID,915.246,VALID,0,VALID,96.2456,VALID,0,VALID,19.4688,VALID,205,VALID,0,
2013-12-08, 02:00:04,VALID,915.178,VALID,0,VALID,96.1313,VALID,0,VALID,19.4688,VALID,216,VALID,0,
2013-12-08, 02:01:04,VALID,915.147,VALID,0,VALID,96.1236,VALID,0,VALID,19.5078,VALID,294,VALID,0.178906,
2013-12-08, 02:02:04,VALID,915.137,VALID,0,VALID,96.1465,VALID,0,VALID,19.5093,VALID,279,VALID,0,
2013-12-08, 02:03:04,VALID,915.11,VALID,0,VALID,96.1465,VALID,0,VALID,19.4898,VALID,279,VALID,0,
2013-12-08, 02:04:04,VALID,915.069,VALID,0,VALID,96.2304,VALID,0,VALID,19.4493,VALID,279,VALID,0,
2013-12-08, 02:05:04,VALID,915.084,VALID,0,VALID,96.2609,VALID,0,VALID,19.4118,VALID,280,VALID,0,
2013-12-08, 02:06:04,VALID,915.058,VALID,0,VALID,96.3142,VALID,0,VALID,19.3908,VALID,279,VALID,0,
2013-12-08, 02:07:04,VALID,915.07,VALID,0,VALID,96.3447,VALID,0.107441,VALID,19.3923,VALID,252,VALID,0,
2013-12-08, 02:08:04,VALID,915.025,VALID,0,VALID,96.3905,VALID,0,VALID,19.3323,VALID,252,VALID,0,
2013-12-08, 02:09:04,VALID,915.002,VALID,0,VALID,96.4438,VALID,0,VALID,19.3128,VALID,252,VALID,0,
2013-12-08, 02:10:04,VALID,914.996,VALID,0,VALID,96.4743,VALID,0,VALID,19.3143,VALID,252,VALID,0,
2013-12-08, 02:11:04,VALID,915.001,VALID,0,VALID,96.5201,VALID,0,VALID,19.2933,VALID,252,VALID,0,
2013-12-08, 02:12:04,VALID,914.993,VALID,0,VALID,96.5506,VALID,0,VALID,19.2933,VALID,252,VALID,0,
2013-12-08, 02:13:04,VALID,914.99,VALID,0,VALID,96.6039,VALID,0,VALID,19.2948,VALID,252,VALID,0,
2013-12-08, 02:14:04,VALID,914.99,VALID,0,VALID,96.6192,VALID,0,VALID,19.3143,VALID,252,VALID,0,
2013-12-08, 02:15:04,VALID,914.956,VALID,0,VALID,96.6802,VALID,0,VALID,19.3128,VALID,252,VALID,0,
2013-12-08, 02:16:04,VALID,914.936,VALID,0,VALID,96.6954,VALID,0,VALID,19.3338,VALID,252,VALID,0,
2013-12-08, 02:17:04,VALID,914.952,VALID,0,VALID,96.7107,VALID,0,VALID,19.3338,VALID,252,VALID,0,
2013-12-08, 02:18:04,VALID,914.924,VALID,0,VALID,96.7411,VALID,0,VALID,19.3728,VALID,22,VALID,0,
2013-12-08, 02:19:04,VALID,914.947,VALID,0,VALID,96.7716,VALID,0,VALID,19.3728,VALID,13,VALID,0,
2013-12-08, 02:20:04,VALID,914.956,VALID,0,VALID,96.7945,VALID,0,VALID,19.3518,VALID,7,VALID,0,
2013-12-08, 02:21:04,VALID,914.997,VALID,0,VALID,96.825,VALID,0,VALID,19.3923,VALID,27,VALID,0,
2013-12-08, 02:22:04,VALID,915.029,VALID,0,VALID,96.825,VALID,0,VALID,19.4118,VALID,49,VALID,0,
2013-12-08, 02:23:04,VALID,915.069,VALID,0,VALID,96.8174,VALID,0,VALID,19.4118,VALID,37,VALID,0,
2013-12-08, 02:24:04,VALID,915.029,VALID,0,VALID,96.8631,VALID,0,VALID,19.4118,VALID,25,VALID,0,
2013-12-08, 02:25:04,VALID,915.069,VALID,0,VALID,96.8784,VALID,0,VALID,19.3728,VALID,17,VALID,0,
2013-12-08, 02:26:04,VALID,915.057,VALID,0,VALID,96.886,VALID,0,VALID,19.3728,VALID,17,VALID,0,
2013-12-08, 02:27:04,VALID,915.061,VALID,0,VALID,96.8936,VALID,0.107441,VALID,19.3518,VALID,11,VALID,0,
2013-12-08, 02:28:04,VALID,915.059,VALID,0,VALID,96.9089,VALID,0,VALID,19.3728,VALID,11,VALID,0,
2013-12-08, 02:29:04,VALID,915.044,VALID,0,VALID,96.9089,VALID,0,VALID,19.3923,VALID,11,VALID,0,
2013-12-08, 02:30:04,VALID,915.002,VALID,0,VALID,96.9089,VALID,0,VALID,19.3713,VALID,11,VALID,0,
2013-12-08, 02:31:04,VALID,914.968,VALID,0,VALID,96.947,VALID,0,VALID,19.3923,VALID,11,VALID,0,
2013-12-08, 02:32:04,VALID,914.956,VALID,0,VALID,96.947,VALID,0,VALID,19.4313,VALID,25,VALID,0,
2013-12-08, 02:33:04,VALID,914.954,VALID,0,VALID,96.9546,VALID,0,VALID,19.3908,VALID,14,VALID,0,
2013-12-08, 02:34:04,VALID,914.923,VALID,0,VALID,96.9851,VALID,0,VALID,19.4103,VALID,19,VALID,0,
2013-12-08, 02:35:04,VALID,914.905,VALID,0,VALID,96.9775,VALID,0,VALID,19.4313,VALID,19,VALID,0,
2013-12-08, 02:36:04,VALID,914.897,VALID,0,VALID,97.0003,VALID,0,VALID,19.4508,VALID,19,VALID,0,
2013-12-08, 02:37:04,VALID,914.867,VALID,0,VALID,96.9927,VALID,0,VALID,19.4703,VALID,19,VALID,0,
2013-12-08, 02:38:04,VALID,914.854,VALID,0,VALID,97.008,VALID,0,VALID,19.4508,VALID,19,VALID,0,
2013-12-08, 02:39:04,VALID,914.856,VALID,0,VALID,97.0232,VALID,0,VALID,19.4298,VALID,19,VALID,0,
2013-12-08, 02:40:04,VALID,914.847,VALID,0,VALID,97.008,VALID,0,VALID,19.4508,VALID,19,VALID,0,
2013-12-08, 02:41:04,VALID,914.867,VALID,0,VALID,97.0308,VALID,0,VALID,19.4313,VALID,19,VALID,0,
2013-12-08, 02:42:04,VALID,914.888,VALID,0,VALID,97.0308,VALID,0,VALID,19.4313,VALID,19,VALID,0,
2013-12-08, 02:43:04,VALID,914.904,VALID,0,VALID,97.0461,VALID,0,VALID,19.4313,VALID,19,VALID,0,
2013-12-08, 02:44:04,VALID,914.974,VALID,0,VALID,97.0537,VALID,0,VALID,19.4103,VALID,19,VALID,0,
2013-12-08, 02:45:04,VALID,914.971,VALID,0,VALID,97.0537,VALID,0,VALID,19.4118,VALID,19,VALID,0,
2013-12-08, 02:46:04,VALID,914.976,VALID,0,VALID,97.0766,VALID,0,VALID,19.4118,VALID,19,VALID,0,
2013-12-08, 02:47:04,VALID,914.978,VALID,0,VALID,97.0537,VALID,0,VALID,19.3923,VALID,38,VALID,0,
2013-12-08, 02:48:04,VALID,914.978,VALID,0,VALID,97.069,VALID,0,VALID,19.3923,VALID,90,VALID,0,
2013-12-08, 02:49:04,VALID,914.942,VALID,0,VALID,97.0461,VALID,0.107441,VALID,19.3923,VALID,90,VALID,0,
2013-12-08, 02:50:04,VALID,914.917,VALID,0,VALID,97.0766,VALID,0,VALID,19.3533,VALID,90,VALID,0,
2013-12-08, 02:51:04,VALID,914.904,VALID,0,VALID,97.0842,VALID,0,VALID,19.3533,VALID,90,VALID,0,
2013-12-08, 02:52:04,VALID,914.884,VALID,0,VALID,97.0766,VALID,0,VALID,19.3128,VALID,90,VALID,0,
2013-12-08, 02:53:04,VALID,914.881,VALID,0,VALID,97.0613,VALID,0,VALID,19.3338,VALID,90,VALID,0,
2013-12-08, 02:54:04,VALID,914.874,VALID,0,VALID,97.0994,VALID,0,VALID,19.2933,VALID,90,VALID,0,
2013-12-08, 02:55:04,VALID,914.898,VALID,0,VALID,97.0842,VALID,0,VALID,19.2948,VALID,90,VALID,0,
2013-12-08, 02:56:04,VALID,914.865,VALID,0,VALID,97.1147,VALID,0,VALID,19.2753,VALID,81,VALID,0,
2013-12-08, 02:57:04,VALID,914.854,VALID,0,VALID,97.1071,VALID,0,VALID,19.2558,VALID,81,VALID,0,
2013-12-08, 02:58:04,VALID,914.891,VALID,0,VALID,97.0994,VALID,0.107441,VALID,19.2153,VALID,81,VALID,0,
2013-12-08, 02:59:04,VALID,914.942,VALID,0,VALID,97.1147,VALID,0,VALID,19.2153,VALID,85,VALID,0,
2013-12-08, 03:00:04,VALID,914.939,VALID,0,VALID,97.1223,VALID,0,VALID,19.1958,VALID,102,VALID,0,
2013-12-08, 03:01:04,VALID,914.958,VALID,0,VALID,97.1147,VALID,0.107441,VALID,19.2168,VALID,102,VALID,0,
2013-12-08, 03:02:04,VALID,914.937,VALID,0,VALID,97.1376,VALID,0,VALID,19.1763,VALID,102,VALID,0,
2013-12-08, 03:03:04,VALID,914.981,VALID,0,VALID,97.1376,VALID,0,VALID,19.1778,VALID,102,VALID,0,
2013-12-08, 03:04:04,VALID,914.965,VALID,0,VALID,97.1452,VALID,0.107441,VALID,19.1568,VALID,113,VALID,0,
2013-12-08, 03:05:04,VALID,914.935,VALID,0,VALID,97.1681,VALID,0,VALID,19.1568,VALID,115,VALID,0,
2013-12-08, 03:06:04,VALID,914.959,VALID,0,VALID,97.1452,VALID,0,VALID,19.1373,VALID,126,VALID,0,
2013-12-08, 03:07:04,VALID,914.932,VALID,0,VALID,97.1604,VALID,0,VALID,19.1388,VALID,130,VALID,0,
2013-12-08, 03:08:04,VALID,914.924,VALID,0,VALID,97.1528,VALID,0,VALID,19.0983,VALID,119,VALID,0,
2013-12-08, 03:09:04,VALID,914.911,VALID,0,VALID,97.1757,VALID,0,VALID,19.0983,VALID,134,VALID,0,
2013-12-08, 03:10:04,VALID,914.896,VALID,0,VALID,97.1681,VALID,0,VALID,19.1193,VALID,123,VALID,0,
2013-12-08, 03:11:04,VALID,914.9,VALID,0,VALID,97.1833,VALID,0,VALID,19.1193,VALID,126,VALID,0,
2013-12-08, 03:12:04,VALID,914.9,VALID,0,VALID,97.1833,VALID,0,VALID,19.1193,VALID,130,VALID,0,
2013-12-08, 03:13:04,VALID,914.959,VALID,0,VALID,97.2138,VALID,0,VALID,19.1388,VALID,129,VALID,0,
2013-12-08, 03:14:04,VALID,914.926,VALID,0,VALID,97.1986,VALID,0,VALID,19.1193,VALID,126,VALID,0,
2013-12-08, 03:15:04,VALID,914.911,VALID,0,VALID,97.2138,VALID,0.107441,VALID,19.1388,VALID,126,VALID,0,
2013-12-08, 03:16:04,VALID,914.929,VALID,0,VALID,97.1909,VALID,0.107441,VALID,19.1583,VALID,132,VALID,0,
2013-12-08, 03:17:04,VALID,914.974,VALID,0,VALID,97.2062,VALID,0,VALID,19.1373,VALID,140,VALID,0,
2013-12-08, 03:18:04,VALID,914.967,VALID,0,VALID,97.2214,VALID,0,VALID,19.1583,VALID,139,VALID,0,
2013-12-08, 03:19:04,VALID,914.972,VALID,0,VALID,97.2214,VALID,0,VALID,19.1373,VALID,130,VALID,0,
2013-12-08, 03:20:04,VALID,914.954,VALID,0,VALID,97.2138,VALID,0,VALID,19.1373,VALID,135,VALID,0,
2013-12-08, 03:21:04,VALID,914.992,VALID,0,VALID,97.2138,VALID,0,VALID,19.1583,VALID,135,VALID,0,
2013-12-08, 03:22:04,VALID,914.973,VALID,0,VALID,97.2214,VALID,0,VALID,19.1388,VALID,124,VALID,1.6043,
2013-12-08, 03:23:04,VALID,915.002,VALID,0,VALID,97.229,VALID,0,VALID,19.1388,VALID,128,VALID,1.49414,
2013-12-08, 03:24:04,VALID,914.997,VALID,0,VALID,97.2062,VALID,0,VALID,19.1373,VALID,123,VALID,0.766406,
2013-12-08, 03:25:04,VALID,915.002,VALID,0,VALID,97.2214,VALID,0,VALID,19.1778,VALID,140,VALID,0.676953,
2013-12-08, 03:26:04,VALID,914.993,VALID,0,VALID,97.2367,VALID,0,VALID,19.1583,VALID,134,VALID,1.04609,
2013-12-08, 03:27:04,VALID,915.023,VALID,0,VALID,97.2367,VALID,0,VALID,19.1583,VALID,155,VALID,0.847656,
2013-12-08, 03:28:04,VALID,915.03,VALID,0,VALID,97.229,VALID,0,VALID,19.1373,VALID,169,VALID,1.15352,
2013-12-08, 03:29:04,VALID,915.033,VALID,0,VALID,97.229,VALID,0,VALID,19.1583,VALID,158,VALID,1.44922,
2013-12-08, 03:30:04,VALID,915.021,VALID,0,VALID,97.2367,VALID,0,VALID,19.1583,VALID,153,VALID,1.06992,
2013-12-08, 03:31:04,VALID,915.008,VALID,0,VALID,97.2443,VALID,0.107441,VALID,19.1388,VALID,128,VALID,1.38672,
2013-12-08, 03:32:04,VALID,915.036,VALID,0,VALID,97.2595,VALID,0,VALID,19.1388,VALID,146,VALID,1.21328,
2013-12-08, 03:33:04,VALID,915.079,VALID,0,VALID,97.2595,VALID,0,VALID,19.0998,VALID,136,VALID,0.861719,
2013-12-08, 03:34:04,VALID,915.094,VALID,0,VALID,97.2595,VALID,0.107441,VALID,19.0983,VALID,133,VALID,1.65,
2013-12-08, 03:35:04,VALID,915.11,VALID,0,VALID,97.2595,VALID,0.107441,VALID,19.0788,VALID,143,VALID,0.780469,
2013-12-08, 03:36:04,VALID,915.151,VALID,0,VALID,97.2672,VALID,0,VALID,19.0803,VALID,156,VALID,0.702734,
2013-12-08, 03:37:04,VALID,915.166,VALID,0,VALID,97.2824,VALID,0,VALID,19.0803,VALID,142,VALID,1.17891,
2013-12-08, 03:38:04,VALID,915.19,VALID,0,VALID,97.2672,VALID,0,VALID,19.0593,VALID,143,VALID,1.07383,
2013-12-08, 03:39:04,VALID,915.209,VALID,0,VALID,97.2672,VALID,0,VALID,19.0803,VALID,137,VALID,1.33594,
2013-12-08, 03:40:04,VALID,915.223,VALID,0,VALID,97.2748,VALID,0,VALID,19.0203,VALID,138,VALID,1.69492,
2013-12-08, 03:41:04,VALID,915.233,VALID,0,VALID,97.29,VALID,0,VALID,19.0608,VALID,153,VALID,1.27461,
2013-12-08, 03:42:04,VALID,915.234,VALID,0,VALID,97.2748,VALID,0,VALID,19.0608,VALID,151,VALID,0.991016,
2013-12-08, 03:43:04,VALID,915.28,VALID,0,VALID,97.2672,VALID,0.107441,VALID,19.0203,VALID,146,VALID,1.53437,
2013-12-08, 03:44:04,VALID,915.253,VALID,0,VALID,97.2824,VALID,0,VALID,19.0398,VALID,158,VALID,0.982813,
2013-12-08, 03:45:04,VALID,915.274,VALID,0,VALID,97.2748,VALID,0,VALID,19.0398,VALID,158,VALID,1.75937,
2013-12-08, 03:46:04,VALID,915.283,VALID,0,VALID,97.2748,VALID,0,VALID,19.0413,VALID,144,VALID,2.11562,
2013-12-08, 03:47:04,VALID,915.298,VALID,0,VALID,97.2748,VALID,0.107441,VALID,19.0218,VALID,153,VALID,1.84922,
2013-12-08, 03:48:04,VALID,915.31,VALID,0,VALID,97.29,VALID,0.107441,VALID,19.0413,VALID,151,VALID,1.59102,
2013-12-08, 03:49:04,VALID,915.296,VALID,0,VALID,97.2748,VALID,0.107441,VALID,19.0008,VALID,138,VALID,1.61016,
2013-12-08, 03:50:04,VALID,915.314,VALID,0,VALID,97.2824,VALID,0,VALID,19.0413,VALID,136,VALID,2.625,
2013-12-08, 03:51:04,VALID,915.307,VALID,0,VALID,97.2672,VALID,0,VALID,19.0398,VALID,129,VALID,2.32109,